Погода в Полянах

Россия / Рязанская область     54˚42′56″N   39˚49′41″E
темп.,
°C
ветер,
м/с
пор.,
м/с
влажн.,
%
обл.,
%
осадки,
мм/ч
давл.,
гПа
погр.,
м
16 января, сб
сб1600:00−13˚с3695100 0.7 1008257
03:00−14˚ссз4795100 1.8 1007294
06:00−13˚ссз4895100 1.3 1004377
09:00−13˚сз5995100 3.5 1003509
12:00−12˚ссз5894100 2.4 1002612
15:00−13˚сз5894100 3.7 1002611
18:00−14˚сз4894100 1.0 1003575
21:00−15˚сз3795100 1.3 1005438
17 января, вс
вс1700:00−16˚зсз4795100 0.3 1007344
03:00−17˚зсз3795100 0.3 1009336
06:00−18˚сз3795100 0.1 1009283
09:00−21˚сз3597100 0.1 1012183
12:00−20˚сз349599 0.0 1014281
15:00−20˚сз2494100 0.0 1015257
18:00−22˚ссз2297100 0.0 101726
21:00−23˚с2396100 0.0 101882
18 января, пн
пн1800:00−24˚вюв009798 0.0 101820
03:00−26˚ссз229781 0.0 101919
06:00−26˚ссз239797 0.0 101923
09:00−26˚ссз009799 0.0 102019
12:00−22˚з1293100 0.0 1020171
15:00−21˚ссз129591 0.0 1019107
18:00−23˚зюз129594 0.0 101920
21:00−22˚зсз229597 0.0 101955
19 января, вт
вт1900:00−21˚ссз1295100 0.0 101858
03:00−21˚ссз1295100 0.0 101886
06:00−21˚ссз1295100 0.0 101766
09:00−21˚ссз1295100 0.0 101741
12:00−18˚сз1289100 0.0 1016237
15:00−17˚зсз2393100 0.0 1015242
18:00−19˚сз2395100 0.0 101656
21:00−18˚сз2297100 0.1 101762
20 января, ср
ср2000:00−19˚зсз229994 0.1 101720
03:00−19˚зсз239887 0.1 101939
06:00−19˚зсз339882 0.0 101961
09:00−19˚зсз239888 0.1 102069
12:00−15˚з349593 0.0 1021186
15:00−14˚зюз249480 0.0 1021152
18:00−17˚зюз339516 0.0 102234
21:00−18˚юз34958 0.0 102266